Location: Penzberg
(47.7615°N, 11.3159°E)
Time: 22:31:50
(UTC+02:00)

ISS - Visible Passes

Search period start: 26 July 2017 00:00
Search period end: 05 August 2017 00:00
Orbit: 400 x 408 km, 51.6° (Epoch: 27 July)

Date Brightness Start Highest point End Pass type
(mag) Time Alt. Az. Time Alt. Az. Time Alt. Az.
26 Jul -2.5 00:52:10 10° WNW 00:55:17 40° N 00:56:42 25° ENE visible
26 Jul -1.3 02:28:44 10° WNW 02:29:15 14° WNW 02:29:15 14° WNW visible
26 Jul -3.8 22:22:52 10° WSW 22:26:07 82° NNW 22:29:23 10° ENE visible
26 Jul -2.5 23:59:44 10° WNW 00:02:51 40° N 00:05:20 14° ENE visible
27 Jul -1.9 01:36:26 10° WNW 01:37:56 24° NW 01:37:56 24° NW visible
27 Jul -3.9 21:30:36 10° SW 21:33:49 65° SSE 21:37:03 10° ENE visible
27 Jul -2.7 23:07:17 10° W 23:10:25 44° N 23:13:34 10° ENE visible
28 Jul -2.8 00:44:06 10° WNW 00:46:58 45° N 00:46:58 45° N visible
28 Jul -3.0 22:14:48 10° W 22:18:00 53° NNW 22:21:13 10° ENE visible
28 Jul -2.6 23:51:43 10° WNW 23:54:50 41° N 23:56:07 27° ENE visible
29 Jul -1.1 01:28:14 10° WNW 01:28:44 14° WNW 01:28:44 14° WNW visible
29 Jul -2.5 22:59:16 10° WNW 23:02:23 39° N 23:05:21 11° ENE visible
30 Jul -2.4 00:35:54 10° WNW 00:37:58 35° NW 00:37:58 35° NW visible
30 Jul -2.6 22:06:47 10° W 22:09:54 42° N 22:13:02 10° ENE visible
30 Jul -3.1 23:43:33 10° WNW 23:46:44 50° NNE 23:47:12 45° NE visible
31 Jul -2.7 22:51:08 10° WNW 22:54:17 42° N 22:56:29 17° ENE visible
01 Aug -1.8 00:27:39 10° WNW 00:29:05 24° WNW 00:29:05 24° WNW visible
01 Aug -2.6 21:58:41 10° WNW 22:01:47 39° N 22:04:53 10° ENE visible
01 Aug -3.7 23:35:16 10° WNW 23:38:22 72° NNW 23:38:22 72° NNW visible
02 Aug -3.3 22:42:53 10° WNW 22:46:05 55° NNE 22:47:40 26° E visible
03 Aug -1.3 00:19:27 10° WNW 00:20:18 16° W 00:20:18 16° W visible
03 Aug -2.9 21:50:27 10° WNW 21:53:36 44° N 21:56:45 10° E visible
03 Aug -3.3 23:26:57 10° WNW 23:29:36 50° W 23:29:36 50° W visible
04 Aug -3.9 22:34:31 10° WNW 22:37:47 85° NNE 22:38:56 37° ESE visible
